Flag for Canada Weather past 2 weeks in Camrose, Alberta, Canada

34 °F


Feels Like: 34 °F
Forecast: 37 / 56 °F
Wind: 2 mph from South

Location: Edmonton International

Current Time: Oct 13, 2015 at 6:48:42 AM

Latest Report: Oct 13, 2015 at 6:00 AM

Visibility: 15 mi

Pressure: 29.98 "Hg (27.33 "Hg at 744m altitude)

Humidity: 70%

Dew point: 25 °F

Location of CamroseLocation

Historic Weather in Camrose — Graph


Camrose temperature yesterday

Maximum temperature yesterday: 57 °F (at 5:00 PM)
Minimum temperature yesterday: 34 °F (at 12:00 AM)
Average temperature yesterday: 43 °F

Past Weeks' High & Low Weather Summary

High77 °F (Oct 10, 2:00 PM)93% (Sep 30, 2:00 AM)30.48 "Hg (Sep 30, 2:00 AM)
Low21 °F (Oct 5, 6:00 AM)22% (Oct 10, 2:00 PM)29.15 "Hg (Oct 11, 2:00 AM)
Average47 °F69%29.99 "Hg
* Reported Sep 28 5:00 AM — Oct 13 5:00 AM, Camrose, Weather by CustomWeather, © 2015

Note: Actual official high and low records may vary slightly from our data, if they occured in-between our weather recording intervals... More about our weather records


Camrose weather history for previous 24 hours

Time TempWeatherWind HumidityBarometerVisibility
5:00 AM
Tue, Oct 13
32 °FClear.9 mph75%29.97 "Hg15 mi
4:00 AM34 °FClear.8 mph70%29.98 "Hg15 mi
3:00 AM34 °FClear.9 mph75%29.98 "Hg15 mi
2:00 AM36 °FClear.6 mph70%29.97 "Hg15 mi
1:00 AM36 °FClear.8 mph70%29.98 "Hg15 mi
12:00 AM39 °FClear.6 mph65%29.97 "Hg15 mi
11:00 PM
Mon, Oct 12
37 °FClear.10 mph70%29.95 "Hg15 mi
10:00 PM39 °FClear.9 mph70%29.93 "Hg15 mi
9:00 PM41 °FPassing clouds.10 mph66%29.90 "Hg15 mi
8:00 PM46 °FPassing clouds.9 mph62%29.87 "Hg15 mi
7:00 PM46 °FPassing clouds.7 mph76%29.84 "Hg15 mi
6:00 PM54 °FPassing clouds.8 mph67%29.82 "Hg15 mi
5:00 PM57 °FPassing clouds.8 mph63%29.82 "Hg15 mi
4:00 PM55 °FPassing clouds.6 mph72%29.82 "Hg15 mi
3:00 PM54 °FScattered clouds.10 mph77%29.82 "Hg15 mi
2:00 PM52 °FBroken clouds.2 mph77%29.83 "Hg15 mi
1:00 PM48 °FSprinkles. Cloudy.6 mph82%29.83 "Hg15 mi
12:00 PM45 °FSprinkles. Mostly cloudy.6 mph81%29.85 "Hg12 mi
11:00 AM45 °FSprinkles. Partly sunny.6 mph71%29.86 "Hg15 mi
10:54 AM45 °FSprinkles. Mostly cloudy.5 mph71%29.85 "Hg15 mi
10:00 AM43 °FPartly sunny.9 mph76%29.83 "Hg15 mi
9:00 AM41 °FPartly sunny.12 mph76%29.83 "Hg15 mi
8:00 AM37 °FPassing clouds.10 mph87%29.85 "Hg15 mi
7:00 AM39 °FPassing clouds.12 mph81%29.85 "Hg15 mi
6:00 AM41 °FPassing clouds.12 mph76%29.87 "Hg15 mi
Weather by CustomWeather, © 2015

See weather overviewHow to use our weather pages